S-Net H
1 43187U 18014H 18270.32494784 -.00000326 00000-0 -23608-4 0 9992
2 43187 97.7166 177.4420 0011195 163.2235 196.9359 14.96505751 35592
S-Net J
1 43188U 18014J 18270.52541108 -.00000331 00000-0 -23994-4 0 9992
2 43188 97.7168 177.6475 0011207 162.6599 197.5007 14.96506299 35626
S-Net K
1 43189U 18014K 18270.32499998 -.00000328 00000-0 -23782-4 0 9991
2 43189 97.7165 177.4407 0011186 163.1582 197.0012 14.96505261 34146
FMN 1
1 43192U 18015A 18270.53374153 .00002531 00000-0 10962-3 0 9995
2 43192 97.3686 37.4154 0017680 139.3293 220.9267 15.23182039 36096
Shaonian Xing
1 43199U 18015H 18270.52563726 .00001904 00000-0 81277-4 0 9998
2 43199 97.3474 37.0366 0018448 151.2359 208.9900 15.23964346 36121
1KUNS-PF
1 43466U 98067NP 18270.31274969 .00013744 00000-0 18766-3 0 9992
2 43466 51.6392 227.3847 0001393 97.6923 262.4228 15.57780579 21605
UBAKUSAT
1 43467U 98067NQ 18270.33414163 .00009304 00000-0 13227-3 0 9991
2 43467 51.6393 227.5311 0003087 134.1395 225.9851 15.57152941 21610
Irazu
1 43468U 98067NR 18270.09756665 .00017524 00000-0 23284-3 0 9998
2 43468 51.6392 228.1983 0001467 88.2548 271.8612 15.58295493121562
EnduroSat One
1 43551U 98067NZ 18269.35713117 .00010138 00000-0 14938-3 0 9993
2 43551 051.6387 233.7454 0005492 226.6620 133.3914 15.56051368011671
EQUISat
1 43552U 98067PA 18270.19479297 .00009673 00000-0 14355-3 0 9991
2 43552 51.6391 229.5909 0005797 230.5718 129.4761 15.55916562 11766
UiTMSat 1
1 43589U 98067PD 18269.45593060 .00010240 00000-0 15415-3 0 9993
2 43589 051.6386 233.6533 0005068 237.9539 122.0960 15.55449752007387
Maya 1
1 43590U 98067PE 18270.16177949 .00011439 00000-0 17108-3 0 9991
2 43590 51.6390 230.1177 0005144 241.7031 118.3441 15.55493925 7423
Bhutan 1
1 43591U 98067PF 18269.13272190 .00010241 00000-0 15382-3 0 9993
2 43591 051.6386 235.2452 0005240 239.3602 120.6873 15.55509960007269
SiriusSat 1
1 43595U 98067PG 18269.85333600 .00009586 00000-0 14669-3 0 9997
2 43595 51.6389 231.8034 0003378 178.6707 181.4294 15.55089401 6551
SiriusSat 2
1 43596U 98067PH 18269.85703266 .00010414 00000-0 15953-3 0 9996
2 43596 51.6399 231.8326 0003990 185.2126 174.8824 15.54949791 6557
SurfSat
1 43614U 18070B 18270.50541747 .00002792 00000-0 79168-4 0 9990
2 43614 93.0220 254.4895 0014095 241.8067 118.1762 15.36227591 1839
CP-7 DAVE
1 43615U 18070C 18270.50532970 .00002757 00000-0 78144-4 0 9993
2 43615 93.0220 254.4899 0014069 242.5719 117.4112 15.36238319 1838
ELFIN-B
1 43616U 18070D 18269.98381141 -.00000007 00000-0 00000 0 0 9994
2 43616 93.0192 254.2592 0014349 251.2733 108.7437 15.36280575 1754
ELFIN-A
1 43617U 18070E 18270.04883533 -.00000007 00000-0 00000 0 0 9996
2 43617 93.0240 254.3057 0013494 244.7316 115.3037 15.36295615 1762
/EX
1
0
The following cubesats were launched on 9-15-2018 from Vandenburg AFB at
6:02 am on a DELTA II rocket. They have been added to this week's AMSAT-NA
TLE distribution:
ELFIN-A - NORAD CAT ID 43617 (Beacon 437.45 MHz)
ELFIN-B - NORAD CAT ID 43616 (Beacon 437.475 MHz)
CP-7 DAVE - NORAD CAT ID 43615 (437.15 MHz, 9600 baud AX.25 PSK,
NRZI+Scrambled, Morse code "DAVE" every 45 seconds)
SurfSat - NORAD CAT ID 43614 (437.275 MHz)
Thanks to Nico Janssen, PA0DLO for the above information.
Ray Hoad
WA5QGD
AMSAT-NA Orbital Elements Manager
1
0
SB KEPS @ AMSAT $ORB18263.N
2Line Orbital Elements 18263.AMSAT
HR AMSAT ORBITAL ELEMENTS FOR AMATEUR SATELLITES IN NASA FORMAT
FROM WA5QGD FORT WORTH,TX September 20, 2018
BID: ORB18263.N
DECODE 2-LINE ELSETS WITH THE FOLLOWING KEY:
1 AAAAAU 00 0 0 BBBBB.BBBBBBBB .CCCCCCCC 00000-0 00000-0 0 DDDZ
2 AAAAA EEE.EEEE FFF.FFFF GGGGGGG HHH.HHHH III.IIII JJ.JJJJJJJJKKKKKZ
KEY: A-CATALOGNUM B-EPOCHTIME C-DECAY D-ELSETNUM E-INCLINATION F-RAAN
G-ECCENTRICITY H-ARGPERIGEE I-MNANOM J-MNMOTION K-ORBITNUM Z-CHECKSUM
TO ALL RADIO AMATEURS BT
AO-07
1 07530U 74089B 18262.89145942 -.00000022 00000-0 13938-3 0 9996
2 07530 101.6984 228.8295 0012154 150.2665 234.3282 12.53634452 6465
UO-11
1 14781U 84021B 18263.13504726 .00000060 00000-0 13593-4 0 9995
2 14781 97.6420 295.2611 0009708 125.8688 234.3430 14.83030605858515
LO-19
1 20442U 90005G 18262.83002668 -.00000008 00000-0 13207-4 0 9994
2 20442 98.6148 200.7622 0010829 227.8015 132.2250 14.32904836497447
HUBBLE
1 20580U 90037B 18263.29216795 .00000426 00000-0 15100-4 0 9998
2 20580 28.4688 206.3838 0002925 85.6011 42.6232 15.09096320359856
MET-2/21
1 22782U 93055A 18263.38748245 .00000066 00000-0 46090-4 0 9999
2 22782 82.5524 18.3725 0021546 217.0118 200.5281 13.83813900265347
AO-27
1 22825U 93061C 18262.88729622 -.00000003 00000-0 16834-4 0 9991
2 22825 98.8728 240.7655 0009482 72.8077 287.4141 14.30039511303107
IO-26
1 22826U 93061D 18262.88217875 -.00000002 00000-0 17079-4 0 9995
2 22826 98.8670 240.7861 0009936 63.1718 297.0479 14.30371438303290
FO-29
1 24278U 96046B 18262.43438095 -.00000003 00000-0 34805-4 0 9991
2 24278 098.5153 088.1993 0349641 226.2588 130.9115 13.53085834090980
NOAA-15
1 25338U 98030A 18263.27501852 .00000085 00000-0 54649-4 0 9996
2 25338 98.7670 279.7584 0009764 316.0771 43.9635 14.25875865 58568
GO-32
1 25397U 98043D 18263.05257257 -.00000014 00000-0 12968-4 0 9999
2 25397 98.6550 201.9462 0002394 96.3796 263.7655 14.23651455 49220
ISS
1 25544U 98067A 18263.53449867 .00001529 00000-0 30614-4 0 9991
2 25544 51.6411 263.5472 0004580 175.5491 329.4907 15.53871345133348
NO-44
1 26931U 01043C 18262.60145814 -.00000032 00000-0 19416-4 0 9998
2 26931 067.0532 345.7893 0007509 261.4040 098.6211 14.30516849885989
SO-50
1 27607U 02058C 18263.10217421 -.00000034 00000-0 16157-4 0 9997
2 27607 64.5550 159.8975 0074167 308.5695 50.8777 14.75480749846960
CO-55
1 27844U 03031E 18263.01066061 .00000051 00000-0 42728-4 0 9995
2 27844 98.6879 270.2710 0010968 96.6129 263.6298 14.22133562789672
CO-57
1 27848U 03031J 18262.99645622 .00000034 00000-0 35160-4 0 9994
2 27848 98.6964 270.6858 0010812 106.2334 254.0034 14.21735166789536
RS-22
1 27939U 03042A 18263.41439851 .00000111 00000-0 28380-4 0 9992
2 27939 98.0042 40.1649 0012484 201.3251 230.4145 14.66716051800770
NOAA-18
1 28654U 05018A 18262.89223715 .00000013 00000-0 32308-4 0 9999
2 28654 099.1372 300.2337 0013760 218.3444 141.6750 14.12385168687058
CO-58
1 28895U 05043F 18263.37509935 .00000121 00000-0 32071-4 0 9996
2 28895 97.9223 51.0479 0017962 126.2152 234.0715 14.63581901687805
Falconsat-3
1 30776U 07006E 18262.72590339 .00002381 00000-0 70139-4 0 9991
2 30776 035.4367 024.7396 0002661 187.8220 172.2465 15.34917133638851
CO-65
1 32785U 08021C 18262.78756344 .00000181 00000-0 25193-4 0 9993
2 32785 097.5477 270.4508 0014692 085.4809 274.8086 14.88174882563176
AAUSAT2
1 32788U 08021F 18263.03457747 .00000242 00000-0 27462-4 0 9999
2 32788 97.5174 285.5682 0012773 37.3471 322.8635 14.94451954564341
DO-64
1 32789U 08021G 18262.71436228 .00000876 00000-0 63700-4 0 9993
2 32789 97.5032 315.0957 0011699 342.1632 17.9183 15.06302826566014
CO-66
1 32791U 08021J 18262.98979376 .00000358 00000-0 41887-4 0 9998
2 32791 97.5347 276.2067 0014842 65.9023 294.3747 14.90628403563639
RS-30
1 32953U 08025A 18263.41319181 .00000024 00000-0 10028-3 0 9995
2 32953 82.5028 313.4623 0018882 5.9151 354.2149 12.43085465468609
PRISM
1 33493U 09002B 18263.32894183 -.00000121 00000-0 -49978-5 0 9999
2 33493 98.1205 169.0327 0016157 5.1825 354.9540 14.96329281524576
